Flag for U.S.A. Weather past 2 weeks in Corvallis, Oregon, U.S.A.

Now
61 °F

Sunny.


Feels Like: 61 °F
Forecast: 57 / 89 °F
Wind: 3 mph from Northeast

Location: Corvallis Municipal

Current Time: Jul 7, 2015 at 8:45:21 AM

Latest Report: Jul 7, 2015 at 8:15 AM


Visibility: 10 mi

Pressure: 30.07 "Hg

Humidity: 72%

Dew point: 52 °F

Location of CorvallisLocation

Historic Weather in Corvallis — Graph

°F

Corvallis temperature yesterday

Maximum temperature yesterday: 88 °F (at 1:35 PM)
Minimum temperature yesterday: 55 °F (at 2:15 AM)
Average temperature yesterday: 69 °F

Past Weeks' High & Low Weather Summary

 TemperatureHumidityPressure
High100 °F (Jun 26, 3:55 PM)88% (Jun 23, 5:15 AM)30.17 "Hg (Jun 23, 5:15 AM)
Low50 °F (Jun 23, 5:15 AM)16% (Jul 5, 4:55 PM)29.77 "Hg (Jul 4, 5:15 PM)
Average73 °F54%29.99 "Hg
* Reported Jun 22 7:15 AM — Jul 7 7:35 AM, Corvallis, Weather by CustomWeather, © 2015

Note: Actual official high and low records may vary slightly from our data, if they occured in-between our weather recording intervals... More about our weather records

Advertising

Corvallis weather history for previous 24 hours

 ConditionsComfort  
Time TempWeatherWind HumidityBarometerVisibility
7:35 AM
Tue, Jul 7
57 °FSunny.6 mph77%30.07 "Hg10 mi
7:15 AM57 °FSunny.7 mph77%30.07 "Hg10 mi
6:55 AM55 °FSunny.6 mph82%30.07 "Hg10 mi
6:35 AM55 °FSunny.6 mph82%30.07 "Hg10 mi
6:15 AM55 °FClear.7 mph77%30.07 "Hg10 mi
5:55 AM55 °FClear.9 mph82%30.07 "Hg10 mi
5:35 AM55 °FClear.9 mph77%30.06 "Hg10 mi
5:15 AM55 °FClear.10 mph77%30.06 "Hg10 mi
4:55 AM55 °FClear.9 mph77%30.06 "Hg10 mi
4:35 AM55 °FClear.10 mph77%30.06 "Hg10 mi
4:15 AM55 °FClear.10 mph82%30.06 "Hg10 mi
3:55 AM55 °FClear.10 mph82%30.06 "Hg10 mi
3:35 AM55 °FClear.10 mph82%30.05 "Hg10 mi
3:15 AM55 °FClear.12 mph82%30.05 "Hg10 mi
2:55 AM55 °FClear.12 mph82%30.05 "Hg10 mi
2:35 AM55 °FClear.10 mph82%30.05 "Hg10 mi
2:15 AM57 °FClear.13 mph77%30.05 "Hg10 mi
1:55 AM57 °FClear.12 mph82%30.05 "Hg10 mi
1:35 AM57 °FClear.13 mph82%30.05 "Hg10 mi
1:15 AM57 °FClear.15 mph82%30.05 "Hg10 mi
12:55 AM57 °FClear.14 mph82%30.05 "Hg10 mi
12:35 AM57 °FClear.15 mph82%30.05 "Hg10 mi
12:15 AM57 °FClear.14 mph82%30.05 "Hg10 mi
11:55 PM
Mon, Jul 6
57 °FClear.13 mph82%30.04 "Hg10 mi
11:35 PM59 °FClear.15 mph77%30.05 "Hg10 mi
11:15 PM59 °FClear.15 mph77%30.04 "Hg10 mi
10:55 PM59 °FClear.17 mph77%30.04 "Hg10 mi
10:35 PM61 °FClear.15 mph72%30.03 "Hg10 mi
10:15 PM61 °FClear.16 mph77%30.03 "Hg10 mi
9:55 PM61 °FSunny.15 mph77%30.03 "Hg10 mi
9:35 PM63 °FSunny.16 mph73%30.03 "Hg10 mi
9:15 PM64 °FSunny.16 mph68%30.02 "Hg10 mi
8:55 PM64 °FSunny.16 mph68%30.01 "Hg10 mi
8:15 PM70 °FSunny.16 mph57%30.01 "Hg10 mi
7:55 PM72 °FSunny.14 mph53%30.01 "Hg10 mi
7:35 PM72 °FSunny.17 mph53%30.00 "Hg10 mi
7:15 PM72 °FSunny.17 mph57%30.00 "Hg10 mi
6:55 PM73 °FSunny.17 mph53%29.99 "Hg10 mi
6:35 PM77 °FSunny.20 mph47%29.98 "Hg10 mi
6:15 PM79 °FSunny.18 mph45%29.98 "Hg10 mi
5:55 PM79 °FSunny.17 mph45%29.98 "Hg10 mi
5:35 PM81 °FSunny.18 mph42%29.98 "Hg9 mi
5:15 PM82 °FSunny.17 mph40%29.99 "Hg10 mi
4:55 PM82 °FSunny.15 mph42%29.99 "Hg10 mi
4:35 PM82 °FSunny.16 mph42%29.99 "Hg10 mi
4:15 PM84 °FSunny.18 mph40%29.99 "Hg10 mi
3:55 PM84 °FSunny.20 mph40%30.00 "Hg10 mi
3:35 PM86 °FSunny.18 mph38%30.00 "Hg8 mi
2:55 PM88 °FSunny.14 mph35%30.00 "Hg10 mi
2:35 PM88 °FSunny.15 mph35%30.00 "Hg10 mi
2:15 PM88 °FSunny.13 mph35%30.00 "Hg10 mi
1:55 PM88 °FSunny.12 mph35%30.00 "Hg10 mi
1:35 PM88 °FSunny.10 mph35%30.01 "Hg10 mi
1:15 PM86 °FSunny.No wind35%30.01 "Hg10 mi
12:55 PM86 °FSunny.5 mph35%30.01 "Hg10 mi
12:35 PM84 °FSunny.5 mph37%30.02 "Hg10 mi
12:15 PM82 °FSunny.3 mph40%30.02 "Hg10 mi
11:55 AM81 °FSunny.No wind39%30.02 "Hg10 mi
11:35 AM81 °FSunny.7 mph39%30.03 "Hg10 mi
11:15 AM81 °FSunny.No wind42%30.03 "Hg10 mi
10:55 AM77 °FSunny.No wind44%30.03 "Hg10 mi
10:35 AM75 °FSunny.3 mph47%30.04 "Hg10 mi
10:15 AM73 °FSunny.No wind50%30.04 "Hg10 mi
9:55 AM72 °FSunny.5 mph53%30.05 "Hg10 mi
9:35 AM72 °FSunny.3 mph53%30.04 "Hg10 mi
9:15 AM70 °FSunny.3 mph57%30.04 "Hg10 mi
8:55 AM68 °FSunny.3 mph60%30.05 "Hg10 mi
8:35 AM64 °FSunny.5 mph68%30.05 "Hg10 mi
8:15 AM63 °FSunny.No wind73%30.05 "Hg10 mi
Weather by CustomWeather, © 2015

See weather overviewHow to use our weather pages